CEB5065 RJAA-RPVM

Flight info

Callsign CEB5065
Flight time N/A
Altitude 34000
Route OLVAN2 SAMUS Y84 BUBDO A590 GURAG G578 TAC DCT LARYO LARYO3P
Aircraft A21N/M-SDE2E3FGHIJ1RWXY/LB1

Departure

Time 2026-05-05 08:01
Airport Narita International Airport (RJAA)

Arrival

Time N/A
Airport Mactan Cebu International Airport (RPVM)
Time Latitude Longitude Altitude Speed Heading
2026-05-05 07:36 35.75836 140.38646 136 ft 0 kts 15°
2026-05-05 07:42 35.75825 140.38643 135 ft 2 kts 15°
2026-05-05 07:42 35.75811 140.38638 135 ft 2 kts 15°
2026-05-05 07:42 35.75796 140.38634 135 ft 2 kts 15°
2026-05-05 07:43 35.75782 140.38629 135 ft 2 kts 14°
2026-05-05 07:43 35.75767 140.38623 135 ft 2 kts 15°
2026-05-05 07:43 35.75753 140.38619 136 ft 2 kts 14°
2026-05-05 07:43 35.75737 140.38617 136 ft 2 kts 349°
2026-05-05 07:44 35.75723 140.38623 136 ft 2 kts 331°
2026-05-05 07:44 35.75711 140.38634 136 ft 2 kts 312°
2026-05-05 07:44 35.75703 140.38649 136 ft 2 kts 293°
2026-05-05 07:44 35.75699 140.38667 136 ft 2 kts 274°
2026-05-05 07:45 35.75700 140.38686 135 ft 2 kts 255°
2026-05-05 07:45 35.75705 140.38702 135 ft 2 kts 236°
2026-05-05 07:45 35.75713 140.38719 135 ft 2 kts 242°
2026-05-05 07:45 35.75721 140.38734 134 ft 2 kts 240°
2026-05-05 07:46 35.75724 140.38741 134 ft 0 kts 240°
2026-05-05 07:50 35.75723 140.38741 134 ft 1 kts 239°
2026-05-05 07:50 35.75715 140.38722 135 ft 3 kts 239°
2026-05-05 07:51 35.75699 140.38689 135 ft 5 kts 239°
2026-05-05 07:51 35.75687 140.38641 136 ft 6 kts 271°
2026-05-05 07:51 35.75712 140.38580 136 ft 7 kts 317°
2026-05-05 07:51 35.75759 140.38542 136 ft 8 kts 329°
2026-05-05 07:52 35.75818 140.38500 136 ft 10 kts 329°
2026-05-05 07:52 35.75884 140.38452 136 ft 11 kts 330°
2026-05-05 07:52 35.75954 140.38402 137 ft 11 kts 329°
2026-05-05 07:52 35.76025 140.38350 139 ft 12 kts 329°
2026-05-05 07:53 35.76102 140.38294 139 ft 13 kts 329°
2026-05-05 07:53 35.76186 140.38232 139 ft 14 kts 329°
2026-05-05 07:53 35.76277 140.38167 139 ft 15 kts 329°
2026-05-05 07:53 35.76378 140.38092 137 ft 17 kts 329°
2026-05-05 07:54 35.76487 140.38014 136 ft 15 kts 329°
2026-05-05 07:54 35.76548 140.37972 135 ft 10 kts 330°
2026-05-05 07:54 35.76613 140.37926 133 ft 4 kts 325°
2026-05-05 07:54 35.76619 140.37917 133 ft 2 kts 302°
2026-05-05 07:55 35.76618 140.37882 133 ft 5 kts 242°
2026-05-05 07:55 35.76589 140.37822 132 ft 10 kts 238°
2026-05-05 07:55 35.76564 140.37747 131 ft 8 kts 271°
2026-05-05 07:55 35.76587 140.37700 130 ft 6 kts 324°
2026-05-05 07:56 35.76635 140.37665 129 ft 9 kts 329°
2026-05-05 07:56 35.76700 140.37617 128 ft 12 kts 329°
2026-05-05 07:56 35.76780 140.37560 127 ft 14 kts 330°
2026-05-05 07:56 35.76873 140.37494 126 ft 16 kts 329°
2026-05-05 07:57 35.76974 140.37421 126 ft 17 kts 329°
2026-05-05 07:57 35.77079 140.37344 125 ft 18 kts 329°
2026-05-05 07:57 35.77194 140.37262 124 ft 19 kts 330°
2026-05-05 07:57 35.77288 140.37192 123 ft 14 kts 328°
2026-05-05 07:58 35.77383 140.37123 122 ft 13 kts 329°
2026-05-05 07:58 35.77446 140.37079 122 ft 10 kts 329°
2026-05-05 07:58 35.77493 140.37039 123 ft 7 kts 310°
2026-05-05 07:58 35.77501 140.36993 123 ft 4 kts 258°
2026-05-05 07:59 35.77488 140.36958 124 ft 4 kts 240°
2026-05-05 07:59 35.77475 140.36931 124 ft 3 kts 239°
2026-05-05 07:59 35.77464 140.36906 125 ft 3 kts 239°
2026-05-05 07:59 35.77450 140.36879 126 ft 4 kts 237°
2026-05-05 08:00 35.77428 140.36852 127 ft 4 kts 212°
2026-05-05 08:00 35.77403 140.36852 127 ft 2 kts 150°
2026-05-05 08:00 35.77383 140.36865 127 ft 3 kts 149°
2026-05-05 08:00 35.77357 140.36885 127 ft 6 kts 149°
2026-05-05 08:01 35.77148 140.37036 127 ft 72 kts 149°
2026-05-05 08:01 35.76500 140.37506 130 ft 139 kts 149°
2026-05-05 08:01 35.75563 140.38185 405 ft 166 kts 149°
2026-05-05 08:01 35.74590 140.38890 1183 ft 160 kts 148°
2026-05-05 08:02 35.73648 140.39574 1993 ft 155 kts 150°
2026-05-05 08:02 35.72685 140.40250 2519 ft 168 kts 150°
2026-05-05 08:02 35.71620 140.40999 2910 ft 179 kts 150°
2026-05-05 08:02 35.70495 140.41794 3170 ft 195 kts 150°
2026-05-05 08:03 35.69277 140.42662 3441 ft 212 kts 150°
2026-05-05 08:03 35.67939 140.43625 3735 ft 229 kts 149°
2026-05-05 08:03 35.66496 140.44664 4066 ft 246 kts 150°
2026-05-05 08:03 35.64969 140.45766 4450 ft 260 kts 150°
2026-05-05 08:04 35.63376 140.46912 5032 ft 266 kts 150°
2026-05-05 08:04 35.61763 140.48073 5637 ft 271 kts 149°
2026-05-05 08:04 35.60117 140.49255 6221 ft 276 kts 149°
2026-05-05 08:04 35.58448 140.50458 6788 ft 281 kts 149°
2026-05-05 08:05 35.56762 140.51671 7368 ft 285 kts 150°
2026-05-05 08:05 35.55022 140.52919 7964 ft 289 kts 150°
2026-05-05 08:05 35.53274 140.54173 8544 ft 293 kts 150°
2026-05-05 08:05 35.51512 140.55438 9100 ft 297 kts 150°
2026-05-05 08:06 35.49720 140.56725 9641 ft 300 kts 150°
2026-05-05 08:06 35.47899 140.58031 10170 ft 304 kts 150°
2026-05-05 08:06 35.46044 140.59357 10519 ft 316 kts 150°
2026-05-05 08:06 35.44116 140.60783 10775 ft 330 kts 145°
2026-05-05 08:07 35.42361 140.62636 11018 ft 344 kts 132°
2026-05-05 08:07 35.40870 140.64987 11266 ft 356 kts 124°
2026-05-05 08:07 35.39445 140.67578 11500 ft 369 kts 123°
2026-05-05 08:07 35.38020 140.70222 11720 ft 381 kts 123°
2026-05-05 08:08 35.36519 140.72986 12008 ft 391 kts 123°
2026-05-05 08:08 35.35014 140.75725 12583 ft 391 kts 124°
2026-05-05 08:08 35.33495 140.78471 13102 ft 393 kts 124°
2026-05-05 08:08 35.31932 140.81284 13580 ft 396 kts 124°
2026-05-05 08:09 35.30396 140.84042 14039 ft 399 kts 124°
2026-05-05 08:09 35.28827 140.86859 14510 ft 401 kts 124°
2026-05-05 08:09 35.27234 140.89711 14954 ft 404 kts 124°
2026-05-05 08:09 35.25647 140.92554 15398 ft 407 kts 124°
2026-05-05 08:10 35.24059 140.95390 15821 ft 410 kts 124°
2026-05-05 08:10 35.22431 140.98270 16234 ft 413 kts 126°
2026-05-05 08:10 35.20412 141.00717 16581 ft 414 kts 147°
2026-05-05 08:10 35.17791 141.02138 17032 ft 410 kts 168°
2026-05-05 08:11 35.14964 141.02537 17483 ft 408 kts 179°
2026-05-05 08:11 35.12100 141.02716 17841 ft 411 kts 180°
2026-05-05 08:11 35.09236 141.02885 18200 ft 414 kts 180°
2026-05-05 08:11 35.06354 141.03078 18583 ft 416 kts 180°
2026-05-05 08:12 35.03462 141.03288 18964 ft 417 kts 180°
2026-05-05 08:12 35.00559 141.03507 19338 ft 418 kts 180°
2026-05-05 08:12 34.97672 141.03732 19710 ft 419 kts 180°
2026-05-05 08:12 34.94722 141.03966 20081 ft 420 kts 181°
2026-05-05 08:13 34.91822 141.04193 20420 ft 421 kts 181°
2026-05-05 08:13 34.88900 141.04422 20745 ft 422 kts 182°
2026-05-05 08:13 34.85957 141.04654 21053 ft 424 kts 182°
2026-05-05 08:13 34.83025 141.04884 21380 ft 424 kts 182°
2026-05-05 08:14 34.80057 141.05118 21707 ft 425 kts 183°
2026-05-05 08:14 34.77121 141.05345 22006 ft 426 kts 184°
2026-05-05 08:14 34.74128 141.05576 22324 ft 427 kts 184°
2026-05-05 08:14 34.71183 141.05804 22594 ft 428 kts 184°
2026-05-05 08:15 34.68214 141.06036 22857 ft 429 kts 184°
2026-05-05 08:15 34.65214 141.06270 23141 ft 430 kts 185°
2026-05-05 08:15 34.62217 141.06502 23442 ft 429 kts 186°
2026-05-05 08:15 34.59306 141.06325 23692 ft 413 kts 200°
2026-05-05 08:16 34.56670 141.05220 23988 ft 395 kts 215°
2026-05-05 08:16 34.54449 141.03375 24302 ft 381 kts 228°
2026-05-05 08:16 34.52550 141.01186 24598 ft 380 kts 230°
2026-05-05 08:16 34.50633 140.98938 24816 ft 381 kts 230°
2026-05-05 08:17 34.48724 140.96696 24889 ft 386 kts 230°
2026-05-05 08:17 34.46796 140.94435 24976 ft 390 kts 230°
2026-05-05 08:17 34.44836 140.92145 25065 ft 394 kts 230°
2026-05-05 08:17 34.42842 140.89812 25221 ft 396 kts 230°
2026-05-05 08:18 34.40878 140.87527 25541 ft 393 kts 230°
2026-05-05 08:18 34.38930 140.85259 25860 ft 391 kts 230°
2026-05-05 08:18 34.36967 140.82971 26186 ft 388 kts 230°
2026-05-05 08:18 34.35042 140.80724 26519 ft 385 kts 230°
2026-05-05 08:19 34.33117 140.78487 26858 ft 382 kts 230°
2026-05-05 08:19 34.31220 140.76279 27187 ft 379 kts 230°
2026-05-05 08:19 34.29317 140.74071 27469 ft 377 kts 230°
2026-05-05 08:19 34.27446 140.71899 27788 ft 374 kts 231°
2026-05-05 08:20 34.25584 140.69745 28084 ft 371 kts 230°
2026-05-05 08:20 34.23731 140.67592 28372 ft 369 kts 230°
2026-05-05 08:20 34.21874 140.65442 28714 ft 365 kts 230°
2026-05-05 08:20 34.20051 140.63338 29046 ft 362 kts 230°
2026-05-05 08:21 34.18255 140.61261 29305 ft 360 kts 230°
2026-05-05 08:21 34.16425 140.59140 29579 ft 359 kts 231°
2026-05-05 08:21 34.14639 140.57075 29862 ft 357 kts 230°
2026-05-05 08:21 34.12862 140.55026 30108 ft 355 kts 231°
2026-05-05 08:22 34.11071 140.52957 30398 ft 353 kts 231°
2026-05-05 08:22 34.09308 140.50926 30651 ft 352 kts 231°
2026-05-05 08:22 34.07548 140.48898 30885 ft 351 kts 230°
2026-05-05 08:22 34.05788 140.46866 31117 ft 349 kts 230°
2026-05-05 08:23 34.04055 140.44876 31380 ft 347 kts 230°
2026-05-05 08:23 34.02317 140.42880 31627 ft 346 kts 231°
2026-05-05 08:23 34.00592 140.40898 31838 ft 345 kts 230°
2026-05-05 08:23 33.98845 140.38888 32058 ft 344 kts 230°
2026-05-05 08:24 33.97136 140.36926 32307 ft 341 kts 230°
2026-05-05 08:24 33.95407 140.34952 32534 ft 340 kts 229°
2026-05-05 08:24 33.93704 140.32994 32686 ft 341 kts 230°
2026-05-05 08:24 33.91996 140.31029 32835 ft 342 kts 230°
2026-05-05 08:25 33.90268 140.29042 32964 ft 344 kts 230°
2026-05-05 08:25 33.88530 140.27121 33129 ft 346 kts 226°
2026-05-05 08:25 33.86679 140.25255 33352 ft 347 kts 225°
2026-05-05 08:25 33.84750 140.23477 33539 ft 349 kts 223°
2026-05-05 08:26 33.82756 140.21791 33719 ft 352 kts 221°
2026-05-05 08:26 33.80711 140.20222 33829 ft 356 kts 220°
2026-05-05 08:26 33.78555 140.18710 33932 ft 360 kts 218°
2026-05-05 08:26 33.76330 140.17308 34097 ft 363 kts 216°
2026-05-05 08:27 33.74109 140.15981 34247 ft 364 kts 216°
2026-05-05 08:27 33.71856 140.14619 34248 ft 364 kts 216°
2026-05-05 08:27 33.67313 140.11893 34250 ft 366 kts 216°
2026-05-05 08:28 33.62765 140.09177 34256 ft 367 kts 216°
2026-05-05 08:28 33.58183 140.06445 34250 ft 368 kts 216°
2026-05-05 08:29 33.53579 140.03708 34250 ft 370 kts 215°
2026-05-05 08:30 33.46698 139.99622 34248 ft 368 kts 215°
2026-05-05 08:30 33.42107 139.96905 34239 ft 369 kts 215°
2026-05-05 08:31 33.37476 139.94167 34248 ft 371 kts 215°
2026-05-05 08:31 33.32858 139.91434 34242 ft 370 kts 215°
2026-05-05 08:32 33.28247 139.88719 34244 ft 372 kts 215°
2026-05-05 08:32 33.23608 139.85980 34235 ft 371 kts 214°
2026-05-05 08:33 33.19004 139.83195 34229 ft 368 kts 218°
2026-05-05 08:33 33.14808 139.79849 34224 ft 363 kts 224°
2026-05-05 08:34 33.11087 139.75891 34220 ft 359 kts 230°
2026-05-05 08:34 33.07871 139.71396 34220 ft 356 kts 237°
2026-05-05 08:35 33.05164 139.66483 34220 ft 355 kts 239°
2026-05-05 08:35 33.02553 139.61484 34218 ft 355 kts 240°
2026-05-05 08:36 32.99952 139.56493 34218 ft 357 kts 240°
2026-05-05 08:36 32.97355 139.51495 34220 ft 357 kts 239°
2026-05-05 08:37 32.94761 139.46497 34218 ft 356 kts 239°
2026-05-05 08:37 32.92185 139.41547 34219 ft 357 kts 240°
2026-05-05 08:38 32.89576 139.36543 34219 ft 357 kts 239°
2026-05-05 08:38 32.86935 139.31506 34218 ft 359 kts 239°
2026-05-05 08:39 32.84314 139.26494 34210 ft 358 kts 240°
2026-05-05 08:39 32.81701 139.21484 34212 ft 358 kts 239°
2026-05-05 08:40 32.79069 139.16454 34213 ft 358 kts 239°
2026-05-05 08:40 32.76440 139.11433 34212 ft 358 kts 239°
2026-05-05 08:41 32.73820 139.06444 34212 ft 360 kts 239°
2026-05-05 08:41 32.71184 139.01424 34212 ft 359 kts 240°
2026-05-05 08:42 32.68549 138.96405 34211 ft 358 kts 240°
2026-05-05 08:42 32.65912 138.91400 34212 ft 360 kts 240°
2026-05-05 08:43 32.63264 138.86371 34212 ft 359 kts 239°
2026-05-05 08:43 32.60604 138.81332 34211 ft 359 kts 239°
2026-05-05 08:44 32.57962 138.76344 34211 ft 360 kts 239°
2026-05-05 08:44 32.55306 138.71327 34206 ft 359 kts 240°
2026-05-05 08:45 32.52668 138.66342 34207 ft 360 kts 239°
2026-05-05 08:45 32.49994 138.61313 34205 ft 362 kts 239°
2026-05-05 08:46 32.47314 138.56265 34201 ft 360 kts 239°
2026-05-05 08:46 32.44641 138.51237 34203 ft 360 kts 239°
2026-05-05 08:47 32.41987 138.46251 34202 ft 360 kts 239°
2026-05-05 08:47 32.39296 138.41213 34199 ft 360 kts 240°
2026-05-05 08:48 32.36633 138.36229 34202 ft 361 kts 240°
2026-05-05 08:48 32.33948 138.31194 34203 ft 361 kts 239°
2026-05-05 08:49 32.31267 138.26164 34200 ft 361 kts 239°
2026-05-05 08:49 32.28586 138.21158 34198 ft 361 kts 239°
2026-05-05 08:50 32.25899 138.16154 34197 ft 360 kts 239°
2026-05-05 08:50 32.23226 138.11180 34195 ft 360 kts 239°
2026-05-05 08:51 32.20534 138.06177 34195 ft 360 kts 239°
2026-05-05 08:51 32.17854 138.01207 34195 ft 362 kts 239°
2026-05-05 08:52 32.15154 137.96208 34196 ft 361 kts 239°
2026-05-05 08:52 32.12452 137.91213 34204 ft 360 kts 239°
2026-05-05 08:53 32.09767 137.86253 34203 ft 360 kts 239°
2026-05-05 08:53 32.07072 137.81285 34199 ft 362 kts 240°
2026-05-05 08:54 32.04372 137.76311 34205 ft 362 kts 239°
2026-05-05 08:54 32.01668 137.71332 34204 ft 362 kts 239°
2026-05-05 08:55 31.98956 137.66351 34205 ft 362 kts 240°
2026-05-05 08:55 31.96240 137.61353 34204 ft 363 kts 239°
2026-05-05 08:56 31.93508 137.56351 34206 ft 361 kts 240°
2026-05-05 08:56 31.90798 137.51399 34209 ft 361 kts 239°
2026-05-05 08:57 31.88058 137.46422 34208 ft 361 kts 239°
2026-05-05 08:57 31.85333 137.41476 34212 ft 362 kts 239°
2026-05-05 08:58 31.82589 137.36504 34213 ft 362 kts 239°
2026-05-05 08:58 31.79851 137.31517 34213 ft 362 kts 239°
2026-05-05 08:59 31.77145 137.26572 34214 ft 362 kts 239°
2026-05-05 08:59 31.74416 137.21605 34215 ft 362 kts 238°
2026-05-05 09:00 31.71671 137.16629 34214 ft 363 kts 239°
2026-05-05 09:00 31.68916 137.11630 34219 ft 364 kts 238°
2026-05-05 09:01 31.66176 137.06680 34219 ft 362 kts 238°
2026-05-05 09:01 31.63421 137.01694 34219 ft 365 kts 238°
2026-05-05 09:02 31.60655 136.96715 34217 ft 364 kts 239°
2026-05-05 09:02 31.57899 136.91742 34215 ft 365 kts 239°
2026-05-05 09:03 31.55115 136.86736 34218 ft 364 kts 238°
2026-05-05 09:03 31.52356 136.81779 34218 ft 365 kts 239°
2026-05-05 09:04 31.49594 136.76810 34212 ft 366 kts 238°
2026-05-05 09:04 31.46769 136.71800 34217 ft 366 kts 237°
2026-05-05 09:05 31.43692 136.67081 34215 ft 367 kts 233°
2026-05-05 09:05 31.40241 136.62640 34210 ft 368 kts 229°
2026-05-05 09:06 31.36484 136.58577 34212 ft 372 kts 225°
2026-05-05 09:06 31.32757 136.54758 34213 ft 371 kts 226°
2026-05-05 09:07 31.28911 136.50810 34208 ft 371 kts 225°